When you browse on this site, cookies collect data to enhance your experience and personalize the content and advertising you see.
Visit our Privacy Policy to learn more. By continuing to use the site, you agree to this use of cookies and data.
  • In Austria
  • List of Countries
  • For 7 days
  • Water Temperature
  • Satellite Maps
  • Weather Map
  • News
  • Weather Widgets
  • user-avatar
    Login

    Hourly Weather Saurimo

    Today, 18 January, Friday

    Time Temperature Precipitation Wind Pressure Humidity
    00:00 +21°C° 0.3 mm 1 mps 670 mmHg 97%
    01:00 +21°C° 0.3 mm 1 mps 670 mmHg 97%
    02:00 +20°C° 0.2 mm 1 mps 670 mmHg 97%
    03:00 +20°C° 0.2 mm 1 mps 670 mmHg 97%
    04:00 +20°C° 0.2 mm 1 mps 670 mmHg 97%
    05:00 +20°C° 0 mm 1 mps 670 mmHg 96%
    06:00 +21°C° 0 mm 1 mps 671 mmHg 95%
    07:00 +21°C° 0 mm 1 mps 671 mmHg 93%
    08:00 +23°C° 0 mm 1 mps 672 mmHg 84%
    09:00 +25°C° 0 mm 1 mps 672 mmHg 75%
    10:00 +27°C° 0 mm 2 mps 672 mmHg 66%
    11:00 +27°C° 0.6 mm 2 mps 672 mmHg 67%
    12:00 +27°C° 0.6 mm 2 mps 671 mmHg 69%
    13:00 +28°C° 0.6 mm 2 mps 671 mmHg 70%
    14:00 +27°C° 2 mm 2 mps 670 mmHg 76%
    15:00 +26°C° 2 mm 2 mps 669 mmHg 82%
    16:00 +25°C° 2 mm 2 mps 669 mmHg 88%
    17:00 +24°C° 1 mm 2 mps 669 mmHg 91%
    18:00 +23°C° 1 mm 1 mps 669 mmHg 94%
    19:00 +22°C° 1 mm 1 mps 669 mmHg 96%
    20:00 +21°C° 0.2 mm 1 mps 670 mmHg 97%
    21:00 +21°C° 0.2 mm 1 mps 670 mmHg 97%
    22:00 +20°C° 0.2 mm 2 mps 671 mmHg 97%
    23:00 +21°C° 0.1 mm 1 mps 671 mmHg 97%

    Tomorrow, 19 January, Saturday

    Time Temperature Precipitation Wind Pressure Humidity
    00:00 +20°C° 0.1 mm 1 mps 670 mmHg 97%
    01:00 +20°C° 0.1 mm 1 mps 670 mmHg 97%
    02:00 +20°C° 0.3 mm 1 mps 670 mmHg 97%
    03:00 +20°C° 0.3 mm 1 mps 670 mmHg 97%
    04:00 +20°C° 0.3 mm 1 mps 669 mmHg 97%
    05:00 +20°C° 0.5 mm 1 mps 670 mmHg 97%
    06:00 +20°C° 0.5 mm 1 mps 670 mmHg 96%
    07:00 +20°C° 0.5 mm 1 mps 670 mmHg 96%
    08:00 +21°C° 0.5 mm 1 mps 671 mmHg 94%
    09:00 +22°C° 0.5 mm 1 mps 671 mmHg 92%
    10:00 +23°C° 0.5 mm 1 mps 671 mmHg 91%
    11:00 +24°C° 1 mm 2 mps 670 mmHg 88%
    12:00 +25°C° 1 mm 2 mps 670 mmHg 84%
    13:00 +26°C° 1 mm 3 mps 670 mmHg 81%
    14:00 +26°C° 0.8 mm 3 mps 670 mmHg 82%
    15:00 +26°C° 0.8 mm 3 mps 669 mmHg 82%
    16:00 +26°C° 0.8 mm 3 mps 669 mmHg 83%
    17:00 +24°C° 1.1 mm 3 mps 669 mmHg 87%
    18:00 +23°C° 1.1 mm 2 mps 670 mmHg 90%
    19:00 +21°C° 1.1 mm 2 mps 670 mmHg 94%
    20:00 +20°C° 0.8 mm 2 mps 671 mmHg 94%
    21:00 +20°C° 0.8 mm 2 mps 671 mmHg 94%
    22:00 +20°C° 0.8 mm 2 mps 672 mmHg 95%
    23:00 +20°C° 0.1 mm 1 mps 671 mmHg 95%

    Day after tomorrow, 20 January, Sunday

    Time Temperature Precipitation Wind Pressure Humidity
    00:00 +20°C° 0.1 mm 1 mps 671 mmHg 96%
    01:00 +20°C° 0.1 mm 1 mps 671 mmHg 96%
    02:00 +20°C° 0 mm 1 mps 670 mmHg 97%
    03:00 +19°C° 0 mm 1 mps 670 mmHg 97%
    04:00 +19°C° 0 mm 1 mps 670 mmHg 97%
    05:00 +18°C° 0.1 mm 0 mps 670 mmHg 96%
    06:00 +18°C° 0.1 mm 0 mps 671 mmHg 96%
    07:00 +18°C° 0.1 mm 0 mps 671 mmHg 95%
    08:00 +21°C° 0.3 mm 1 mps 672 mmHg 93%
    09:00 +22°C° 0.3 mm 1 mps 672 mmHg 91%
    10:00 +23°C° 0.3 mm 1 mps 672 mmHg 89%
    11:00 +24°C° 0 mm 1 mps 672 mmHg 79%
    12:00 +26°C° 0 mm 2 mps 672 mmHg 68%
    13:00 +28°C° 0 mm 2 mps 672 mmHg 58%
    14:00 +27°C° 0.2 mm 3 mps 671 mmHg 65%
    15:00 +26°C° 0.2 mm 3 mps 670 mmHg 72%
    16:00 +25°C° 0.2 mm 3 mps 670 mmHg 79%
    17:00 +23°C° 0.2 mm 2 mps 670 mmHg 85%
    18:00 +21°C° 0.2 mm 2 mps 670 mmHg 90%
    19:00 +21°C° 0.2 mm 1 mps 671 mmHg 96%
    20:00 +20°C° 0 mm 1 mps 671 mmHg 95%
    21:00 +20°C° 0 mm 1 mps 671 mmHg 95%
    22:00 +18°C° 0 mm 0 mps 672 mmHg 95%
    23:00 +18°C° 0.2 mm 0 mps 671 mmHg 95%

    21 January, Monday

    Time Temperature Precipitation Wind Pressure Humidity
    00:00 +18°C° 0.2 mm 0 mps 671 mmHg 95%
    01:00 +18°C° 0.2 mm 0 mps 671 mmHg 95%
    02:00 +18°C° 0.1 mm 0 mps 671 mmHg 95%
    03:00 +18°C° 0.1 mm 0 mps 670 mmHg 95%
    04:00 +18°C° 0.1 mm 0 mps 670 mmHg 96%
    05:00 +18°C° 0.1 mm 0 mps 671 mmHg 95%
    06:00 +18°C° 0.1 mm 0 mps 671 mmHg 94%
    07:00 +19°C° 0.1 mm 0 mps 672 mmHg 93%
    08:00 +21°C° 0 mm 0 mps 672 mmHg 86%
    09:00 +25°C° 0 mm 1 mps 673 mmHg 78%
    10:00 +27°C° 0 mm 1 mps 673 mmHg 70%
    11:00 +28°C° 0.1 mm 1 mps 672 mmHg 63%
    12:00 +29°C° 0.1 mm 2 mps 672 mmHg 57%
    13:00 +31°C° 0.1 mm 2 mps 671 mmHg 50%
    14:00 +30°C° 0 mm 2 mps 670 mmHg 55%
    15:00 +29°C° 0 mm 1 mps 670 mmHg 59%
    16:00 +29°C° 0 mm 1 mps 669 mmHg 64%
    17:00 +26°C° 0.7 mm 2 mps 669 mmHg 73%
    18:00 +24°C° 0.7 mm 2 mps 670 mmHg 83%
    19:00 +21°C° 0.7 mm 3 mps 670 mmHg 92%
    20:00 +20°C° 0.3 mm 2 mps 670 mmHg 93%
    21:00 +20°C° 0.3 mm 2 mps 671 mmHg 95%
    22:00 +20°C° 0.3 mm 1 mps 671 mmHg 96%
    23:00 +20°C° 0 mm 1 mps 671 mmHg 96%

    22 January, Tuesday

    Time Temperature Precipitation Wind Pressure Humidity
    00:00 +20°C° 0 mm 1 mps 670 mmHg 96%
    01:00 +18°C° 0 mm 0 mps 670 mmHg 96%
    02:00 +20°C° 0 mm 1 mps 670 mmHg 96%
    03:00 +20°C° 0 mm 1 mps 670 mmHg 96%
    04:00 +20°C° 0 mm 1 mps 670 mmHg 96%
    05:00 +20°C° 0 mm 1 mps 670 mmHg 95%
    06:00 +20°C° 0 mm 1 mps 671 mmHg 93%
    07:00 +19°C° 0 mm 0 mps 671 mmHg 92%
    08:00 +23°C° 0 mm 1 mps 671 mmHg 82%
    09:00 +25°C° 0 mm 1 mps 672 mmHg 73%
    10:00 +28°C° 0 mm 2 mps 672 mmHg 63%
    11:00 +29°C° 0.1 mm 2 mps 671 mmHg 58%
    12:00 +30°C° 0.1 mm 3 mps 671 mmHg 54%
    13:00 +31°C° 0.1 mm 3 mps 670 mmHg 49%
    14:00 +30°C° 0.1 mm 3 mps 670 mmHg 55%
    15:00 +29°C° 0.1 mm 2 mps 669 mmHg 60%
    16:00 +28°C° 0.1 mm 2 mps 669 mmHg 66%
    17:00 +26°C° 0.4 mm 2 mps 669 mmHg 73%
    18:00 +24°C° 0.4 mm 2 mps 669 mmHg 80%
    19:00 +21°C° 0.4 mm 2 mps 669 mmHg 88%
    20:00 +21°C° 0 mm 2 mps 669 mmHg 89%
    21:00 +20°C° 0 mm 2 mps 670 mmHg 91%
    22:00 +21°C° 0 mm 1 mps 670 mmHg 93%
    23:00 +21°C° 0 mm 1 mps 670 mmHg 93%

    23 January, Wednesday

    Time Temperature Precipitation Wind Pressure Humidity
    00:00 +20°C° 0 mm 1 mps 669 mmHg 92%
    01:00 +20°C° 0 mm 1 mps 669 mmHg 92%
    02:00 +20°C° 0 mm 1 mps 669 mmHg 91%
    03:00 +20°C° 0 mm 1 mps 669 mmHg 91%
    04:00 +20°C° 0 mm 1 mps 669 mmHg 90%
    05:00 +18°C° 0 mm 0 mps 670 mmHg 89%
    06:00 +19°C° 0 mm 0 mps 670 mmHg 88%
    07:00 +20°C° 0 mm 0 mps 671 mmHg 86%
    08:00 +21°C° 0 mm 0 mps 671 mmHg 80%
    09:00 +24°C° 0 mm 1 mps 672 mmHg 73%
    10:00 +26°C° 0 mm 1 mps 672 mmHg 66%
    11:00 +26°C° 0 mm 1 mps 672 mmHg 63%
    12:00 +27°C° 0 mm 1 mps 671 mmHg 60%
    13:00 +28°C° 0 mm 2 mps 670 mmHg 57%
    14:00 +28°C° 0 mm 1 mps 670 mmHg 56%
    15:00 +28°C° 0 mm 1 mps 669 mmHg 56%
    16:00 +29°C° 0 mm 1 mps 669 mmHg 55%
    17:00 +27°C° 0 mm 1 mps 669 mmHg 62%
    18:00 +25°C° 0 mm 1 mps 669 mmHg 68%
    19:00 +21°C° 0 mm 0 mps 669 mmHg 75%
    20:00 +20°C° 0 mm 0 mps 669 mmHg 79%
    21:00 +19°C° 0 mm 0 mps 670 mmHg 83%
    22:00 +19°C° 0 mm 0 mps 670 mmHg 87%
    23:00 +18°C° 0 mm 0 mps 669 mmHg 89%
    Show more